This is the latest recevied weather packets stored in our database for station/object WX6HNX-12. If no packets are shown the sender has not sent any weather packets the latest 10 day(s).
| Time | Temp. | Humidity | Pressure | Rain* | Wind** | Luminosity | Snow |
|---|---|---|---|---|---|---|---|
| 1777591707 | 28.33° C | 27% | 1009.9 hPa | 0 mm | - | - | - |
| 1777591407 | 28.33° C | 26% | 1009.9 hPa | 0 mm | - | - | - |
| 1777591107 | 28.33° C | 27% | 1009.9 hPa | 0 mm | - | - | - |
| 1777590807 | 28.33° C | 28% | 1009.9 hPa | 0 mm | - | - | - |
| 1777590507 | 28.33° C | 27% | 1010 hPa | 0 mm | - | - | - |
| 1777590208 | 28.33° C | 27% | 1010.1 hPa | 0 mm | - | - | - |
| 1777589907 | 27.78° C | 27% | 1010.2 hPa | 0 mm | - | - | - |
| 1777589607 | 27.78° C | 27% | 1010.2 hPa | 0 mm | - | - | - |
| 1777589308 | 27.78° C | 28% | 1010.3 hPa | 0 mm | - | - | - |
| 1777589007 | 27.78° C | 27% | 1010.3 hPa | 0 mm | - | - | - |
| 1777588708 | 27.78° C | 27% | 1010.3 hPa | 0 mm | - | - | - |
| 1777588409 | 28.33° C | 26% | 1010.4 hPa | 0 mm | - | - | - |
| 1777588107 | 27.78° C | 27% | 1010.5 hPa | 0 mm | - | - | - |
| 1777587807 | 27.78° C | 27% | 1010.6 hPa | 0 mm | - | - | - |
| 1777587507 | 27.78° C | 27% | 1010.7 hPa | 0 mm | - | - | - |
| 1777587207 | 27.22° C | 27% | 1010.7 hPa | 0 mm | - | - | - |
| 1777586678 | 27.78° C | 27% | 1010.9 hPa | 0 mm | - | - | - |
| 1777586379 | 27.78° C | 27% | 1010.8 hPa | 0 mm | - | - | - |
| 1777586079 | 28.33° C | 26% | 1010.9 hPa | 0 mm | - | - | - |
| 1777585178 | 27.78° C | 26% | 1011.3 hPa | 0 mm | - | - | - |
| 1777403508 | 19.44° C | 45% | 1018.3 hPa | 0 mm | - | - | - |
| 1777403209 | 18.89° C | 46% | 1018.3 hPa | 0 mm | - | - | - |
| 1777402908 | 18.89° C | 46% | 1018.3 hPa | 0 mm | - | - | - |
| 1777402608 | 18.89° C | 45% | 1018.5 hPa | 0 mm | - | - | - |
| 1777402308 | 19.44° C | 45% | 1018.6 hPa | 0 mm | - | - | - |
* Rain latest hour (hover to see other rain measurements)
** Current wind speed in m/s (hover to see current wind gust speed)